Location: Harwich
(41.7160°N, 69.9939°W)
Time: 06:38:24
(UTC+02:00)

AAUSAT CUBESAT 2 - Visible Passes

Search period start: 19 September 2024 00:00
Search period end: 29 September 2024 00:00
Orbit: 487 x 495 km, 97.6° (Epoch: 18 September)

Date Brightness Start Highest point End Pass type
(mag) Time Alt. Az. Time Alt. Az. Time Alt. Az.
19 Sep ? 10:56:55 10° NNE 11:00:16 36° E 11:03:36 10° SSE visible
20 Sep ? 10:35:09 10° NE 10:37:48 19° E 10:40:26 10° SE visible
21 Sep ? 10:14:53 10° E 10:15:10 10° E 10:15:29 10° E visible
21 Sep ? 11:45:30 10° N 11:49:00 49° WNW 11:52:29 10° SSW visible
22 Sep ? 11:22:53 10° NNE 11:26:31 82° ESE 11:30:07 10° S visible
23 Sep ? 11:00:28 10° NNE 11:03:53 39° E 11:07:17 10° S visible
24 Sep ? 10:38:20 10° NE 10:41:06 21° E 10:43:52 10° SE visible
25 Sep ? 10:17:10 10° ENE 10:18:10 11° E 10:19:09 10° ESE visible
25 Sep ? 11:48:28 10° N 11:51:56 45° WNW 11:55:23 10° SSW visible
26 Sep ? 11:25:31 10° NNE 11:29:08 87° E 11:32:44 10° SSW visible
27 Sep ? 11:02:44 10° NNE 11:06:12 41° E 11:09:37 10° S visible
28 Sep ? 10:40:16 10° NE 10:43:06 21° E 10:45:55 10° SSE visible
